EO-88
1 42017U 17008BX 17184.59722442 .00001473 00000-0 65629-4 0 9993
2 42017 097.4942 246.0219 0007372 151.4142 208.7500 15.23020562020989
SOMP2
1 42700U 98067LH 17184.58027398 .00011884 00000-0 17369-3 0 9997
2 42700 051.6404 316.0878 0006753 024.7363 335.3951 15.56072909007497
HAVELSAT
1 42701U 98067LJ 17184.58190421 .00011131 00000-0 16383-3 0 9996
2 42701 051.6406 316.0995 0006693 026.0060 334.1267 15.55957549007489
Columbia
1 42702U 98067LK 17184.56702602 .00020787 00000-0 28840-3 0 9993
2 42702 051.6399 316.0000 0007007 014.4990 345.6201 15.56983528007416
PHOENIX
1 42706U 98067LP 17184.38874200 .00013044 00000-0 19036-3 0 9996
2 42706 051.6406 317.0610 0001811 005.3109 354.7902 15.56027581007377
X-CubeSat
1 42707U 98067LQ 17184.58199148 .00011180 00000-0 16431-3 0 9995
2 42707 051.6404 316.1005 0001962 004.0135 356.0871 15.56004794007399
qbee
1 42708U 98067LR 17184.58296602 .00010662 00000-0 15727-3 0 9990
2 42708 051.6404 316.1068 0001954 003.8457 356.2550 15.55962792007356
ZA-AeroSat
1 42713U 98067LU 17184.58953655 .00009293 00000-0 13937-3 0 9993
2 42713 051.6406 316.1504 0002465 324.5710 035.5117 15.55687807007067
LINK
1 42714U 98067LV 17184.58913542 .00011137 00000-0 16509-3 0 9993
2 42714 051.6401 316.1471 0002848 327.6298 032.4518 15.55773548007177
UPSat
1 42716U 98067LX 17184.51924020 .00012388 00000-0 18102-3 0 9991
2 42716 051.6404 316.4307 0004993 026.4230 333.7015 15.56042197007186
SpaceCube
1 42717U 98067LY 17184.58675804 .00010358 00000-0 15360-3 0 9990
2 42717 051.6404 316.1320 0005028 027.4571 332.6685 15.55850030006438
Hoopoe
1 42718U 98067LZ 17184.58550945 .00011592 00000-0 17051-3 0 9999
2 42718 051.6405 316.1239 0005039 025.7874 334.3368 15.55934543006437
Challenger
1 42721U 98067MA 17184.59398603 .00014105 00000-0 20612-3 0 9995
2 42721 051.6401 316.1784 0008312 006.0870 354.0221 15.55885915006139
NJUST-1
1 42722U 98067MB 17184.53585720 .00009126 00000-0 13825-3 0 9993
2 42722 051.6406 316.5401 0007998 009.1348 350.9787 15.55419519006122
UNSW-EC0
1 42723U 98067MC 17184.59800508 .00011311 00000-0 16843-3 0 9996
2 42723 051.6404 316.2057 0008012 007.4993 352.6116 15.55610435006114
DUTHsat
1 42724U 98067MD 17184.59676062 .00013779 00000-0 20249-3 0 9998
2 42724 051.6403 316.1974 0007235 008.8996 351.2122 15.55763104006052
LO-90
1 42725U 98067ME 17184.60180232 .00009537 00000-0 14449-3 0 9992
2 42725 051.6407 316.2311 0007022 011.8205 348.2950 15.55360455006051
nSIGHT1
1 42726U 98067MF 17184.60487779 .00005319 00000-0 84539-4 0 9991
2 42726 051.6409 316.2518 0006885 014.8502 345.2690 15.55104987006045
QBITO
1 42728U 98067MH 17184.53434638 .00010428 00000-0 15618-3 0 9999
2 42728 051.6406 316.5314 0004168 018.2053 341.9087 15.55570658005833
Aalto-2
1 42729U 98067MJ 17184.59845986 .00010309 00000-0 15446-3 0 9995
2 42729 051.6404 316.2096 0004151 018.5350 341.5792 15.55574893005857
SUSat
1 42730U 98067MK 17184.59929486 .00010396 00000-0 15585-3 0 9995
2 42730 051.6403 316.2147 0004244 016.9367 343.1765 15.55548030005850
i-INSPIRE II
1 42731U 98067ML 17184.59743111 .00010444 00000-0 15581-3 0 9995
2 42731 051.6397 316.1995 0007865 320.4832 039.5585 15.55659648005893
PolyITAN-2-SAU
1 42732U 98067MM 17184.59770580 .00009996 00000-0 14973-3 0 9990
2 42732 051.6397 316.2014 0007784 320.3340 039.7081 15.55606587005897
SNUSAT-1
1 42733U 98067MN 17184.59947679 .00009755 00000-0 14682-3 0 9996
2 42733 051.6398 316.2132 0007599 321.7199 038.3252 15.55508951005892
ExAlta-1
1 42734U 98067MP 17184.53328676 .00010899 00000-0 16227-3 0 9999
2 42734 051.6399 316.5219 0009590 343.5673 016.5006 15.55647960005838
Aoxiang-1
1 42735U 98067MQ 17184.59972520 .00008730 00000-0 13234-3 0 9995
2 42735 051.6404 316.2165 0008662 005.8635 354.2456 15.55461685007266
BeEagleSat
1 42736U 98067MR 17184.60013775 .00009909 00000-0 14918-3 0 9995
2 42736 051.6405 316.2194 0008575 004.9930 355.1145 15.55472618005958
Atlantis
1 42737U 98067MS 17184.39831508 .00021902 00000-0 31190-3 0 9992
2 42737 051.6398 317.1215 0008927 358.3204 001.7757 15.56225291005817
CAS-4B
1 42759U 17034B 17184.53787647 -.00000106 00000-0 70082-5 0 9990
2 42759 043.0170 196.7616 0006388 088.2300 053.2500 15.08904639002772
CAS-4A
1 42761U 17034D 17184.53694955 -.00000083 00000-0 84357-5 0 9996
2 42761 043.0163 196.7556 0006970 089.1130 052.1775 15.08978146002763
Object A
1 42765U 17036A 17184.58151101 .00013689 00000-0 10366-3 0 9990
2 42765 094.6146 242.0391 0025061 274.5271 085.3136 15.71964419002251
Object B
1 42766U 17036B 17184.61060381 .00000965 00000-0 48661-4 0 9997
2 42766 097.4493 244.2354 0015886 196.4725 163.5996 15.19426810001589
Object C
1 42767U 17036C 17184.62004940 .00000530 00000-0 29411-4 0 9998
2 42767 097.4485 244.2216 0012949 174.9046 185.2322 15.17893990001581
LituanicaSAT 2
1 42768U 17036D 17184.61001043 .00001886 00000-0 91769-4 0 9999
2 42768 097.4489 244.2353 0015902 199.9366 160.1249 15.19522562001599
Object E
1 42769U 17036E 17184.60950358 .00000520 00000-0 27609-4 0 9997
2 42769 097.4492 244.2367 0015303 198.1383 161.9308 15.19582134001512
InflateSail
1 42770U 17036F 17184.53740705 .00123160 00000-0 53383-2 0 9996
2 42770 097.4497 244.1776 0016897 211.3825 148.6403 15.21713804001511
Object G
1 42771U 17036G 17184.60884462 .00001632 00000-0 79486-4 0 9997
2 42771 097.4491 244.2375 0014959 198.5974 161.4716 15.19688697001530
Object H
1 42772U 17036H 17184.60844660 .00001538 00000-0 75010-4 0 9998
2 42772 097.4491 244.2378 0014696 197.8933 162.1786 15.19746168001532
Object J
1 42773U 17036J 17184.60811735 .00001533 00000-0 74652-4 0 9992
2 42773 097.4491 244.2384 0014493 198.0171 162.0552 15.19794308001531
Object K
1 42774U 17036K 17184.60792679 .00001433 00000-0 69963-4 0 9996
2 42774 097.4493 244.2392 0014362 198.0060 162.0668 15.19820531001520
Object L
1 42775U 17036L 17184.60713835 .00000806 00000-0 40638-4 0 9995
2 42775 097.4493 244.2401 0013975 197.0208 163.0560 15.19930905001534
Object M
1 42776U 17036M 17184.60688552 .00000799 00000-0 40277-4 0 9993
2 42776 097.4494 244.2409 0013846 197.2544 162.8222 15.19967490001537
Object N
1 42777U 17036N 17184.60524919 .00001571 00000-0 75566-4 0 9998
2 42777 097.4502 244.2449 0012844 201.3707 158.6994 15.20212901001527
Max Valier Sat
1 42778U 17036P 17184.60433756 .00000921 00000-0 45483-4 0 9990
2 42778 097.4508 244.2477 0012284 202.3954 157.6746 15.20340247001527
Object Q
1 42779U 17036Q 17184.60393706 .00001378 00000-0 66348-4 0 9991
2 42779 097.4495 244.2449 0012224 208.1972 151.8603 15.20402636001518
Object R
1 42780U 17036R 17184.60371709 .00001416 00000-0 67985-4 0 9993
2 42780 097.4493 244.2446 0012087 208.0902 151.9683 15.20435225001524
Object S
1 42781U 17036S 17184.60362593 .00001270 00000-0 61308-4 0 9996
2 42781 097.4492 244.2444 0012040 208.1100 151.9486 15.20447327001518
Object T
1 42782U 17036T 17184.60343271 .00001365 00000-0 65604-4 0 9997
2 42782 097.4494 244.2451 0011913 208.0268 152.0327 15.20475952001512
